Terminal Aerodrome Forecast
Issued by NWS Norman, OK

Home | Current Version | Previous Version | Text Only | Print | Product List | Glossary On
Versions: 1 2 3 4 5 6 7 8 9 10 11 12 13 14 15 16 17 18 19 20 21 22 23 24 25 26 27 28 29 30 31 32
000
FTUS44 KOUN 301726
TAFOKC
TAF
KOKC 301726Z 3018/3118 04008KT P6SM FEW150
     FM302200 15007KT P6SM SCT250
     FM311500 19016G23KT P6SM BKN250=

USA.gov is the U.S. government's official web portal to all federal, state and local government web resources and services.